Location: Belmont
(13.0833°N, 59.6000°W)
Time: 19:11:30
(UTC+00:00)

Cosmos 2227 Rocket - Pass Details

Date: 17 September 2019
Orbit: 837 x 847 km, 71.0° (Epoch: 20 October)

Event Time Altitude Azimuth Distance (km) Brightness Sun altitude
Rises 22:30:10 0° 166° (SSE) 3,377 5.1 -8.6°
Reaches altitude 10° 22:33:11 10° 150° (SSE) 2,444 4.3 -9.3°
Maximum altitude 22:37:16 21° 103° (ESE) 1,803 3.3 -10.3°
Drops below altitude 10° 22:41:21 10° 56° (NE) 2,449 4.2 -11.3°
Sets 22:44:22 0° 40° (NE) 3,386 5.0 -12.0°
